Location: Cornospital
(48.0620°N, 3.3837°W)
Time: 21:03:46
(UTC+00:00)

MICRODRAGON - Visible Passes

Search period start: 24 January 2022 00:00
Search period end: 03 February 2022 00:00
Orbit: 482 x 505 km, 97.2° (Epoch: 24 January)

Date Brightness Start Highest point End Pass type
(mag) Time Alt. Az. Time Alt. Az. Time Alt. Az.
25 Jan ? 18:34:52 10° NNE 18:34:52 10° NNE 18:34:53 10° NNE visible
26 Jan ? 19:47:13 12° NNW 19:47:13 12° NNW 19:47:30 10° NNW visible
27 Jan ? 19:25:01 16° N 19:25:01 16° N 19:25:48 10° N visible
28 Jan ? 19:02:49 18° N 19:02:49 18° N 19:03:57 10° N visible
29 Jan ? 18:40:36 17° NNE 18:40:36 17° NNE 18:41:53 10° NNE visible
29 Jan ? 20:15:07 13° NW 20:15:07 13° NW 20:15:41 10° NW visible
30 Jan ? 18:18:22 13° NE 18:18:22 13° NE 18:19:29 10° NNE visible
30 Jan ? 19:52:53 21° NNW 19:52:53 21° NNW 19:54:14 10° NNW visible
31 Jan ? 19:30:39 30° NNW 19:30:39 30° NNW 19:32:36 10° NNW visible
01 Feb ? 19:08:24 33° NNE 19:08:24 33° NNE 19:10:47 10° N visible
01 Feb ? 20:42:54 11° WNW 20:42:54 11° WNW 20:43:11 10° NW visible
02 Feb ? 18:46:08 27° NE 18:46:08 27° NE 18:48:47 10° N visible
02 Feb ? 20:20:39 19° WNW 20:20:39 19° WNW 20:22:16 10° NW visible
